Flag for Czech Republic Weather past 2 weeks in Ostrava, Czech Republic

Now
33 °F

Passing clouds.


Feels Like: 28 °F
Forecast: 36 / 44 °F
Wind: 6 mph from Southwest

Location: Ostrava / Mosnov

Current Time: Mar 2, 2015 at 10:37:11 PM

Latest Report: Mar 2, 2015 at 9:00 PM


Visibility: 25 mi

Pressure: 29.83 "Hg

Humidity: 75%

Dew point: 26 °F

Location of OstravaLocation

Historic Weather in Ostrava — Graph

°F

Ostrava temperature yesterday

Maximum temperature yesterday: 49 °F (at 1:00 PM)
Minimum temperature yesterday: 31 °F (at 8:00 AM)
Average temperature yesterday: 40 °F

Past Weeks' High & Low Weather Summary

 TemperatureHumidityPressure
High49 °F (Mar 1, 1:00 PM)98% (Feb 27, 12:00 AM)30.78 "Hg (Feb 27, 12:00 AM)
Low20 °F (Feb 17, 6:00 AM)42% (Feb 21, 12:00 PM)29.57 "Hg (Feb 23, 5:00 PM)
Average37 °F82%30.08 "Hg
* Reported Feb 15 9:00 PM — Mar 2 9:00 PM, Ostrava, Weather by CustomWeather, © 2015

Note: Actual official high and low records may vary slightly from our data, if they occured in-between our weather recording intervals... More about our weather records

Advertising

Ostrava weather history for previous 24 hours

 ConditionsComfort  
Time TempWeatherWind HumidityBarometerVisibility
9:00 PM
Mon, Mar 2
33 °FPassing clouds.6 mph75%29.83 "Hg25 mi
8:00 PM39 °FPassing clouds.3 mph64%29.79 "Hg25 mi
7:00 PM40 °FPassing clouds.3 mph66%29.77 "Hg25 mi
6:00 PM42 °FPassing clouds.5 mph67%29.72 "Hg19 mi
5:00 PM45 °FPartly sunny.8 mph72%29.67 "Hg19 mi
4:00 PM47 °FPartly sunny.10 mph61%29.64 "Hg22 mi
3:00 PM48 °FPartly sunny.9 mph64%29.62 "Hg19 mi
2:00 PM46 °FOvercast.9 mph76%29.63 "Hg16 mi
1:00 PM46 °FOvercast.7 mph82%29.59 "Hg11 mi
12:00 PM46 °FLight rain. Overcast.9 mph86%29.61 "Hg6 mi
11:00 AM47 °FLight rain. Overcast.13 mph83%29.58 "Hg11 mi
10:00 AM46 °FLight rain. Overcast.8 mph84%29.58 "Hg7 mi
9:00 AM45 °FLight rain. Overcast.10 mph86%29.59 "Hg7 mi
8:00 AM45 °FLight rain. Overcast.10 mph83%29.61 "Hg7 mi
7:00 AM45 °FLight rain. Overcast.7 mph85%29.64 "Hg9 mi
6:00 AM42 °FLight rain. Overcast.3 mph89%29.68 "Hg11 mi
5:00 AM42 °FLight rain. Overcast.3 mph82%29.71 "Hg9 mi
4:00 AM42 °FOvercast.8 mph81%29.72 "Hg9 mi
3:00 AM40 °FOvercast.N/A87%29.75 "Hg9 mi
2:00 AM39 °FOvercast.5 mph89%29.78 "Hg9 mi
1:00 AM38 °FOvercast.6 mph86%29.79 "Hg9 mi
12:00 AM42 °FOvercast.7 mph84%29.79 "Hg9 mi
11:00 PM
Sun, Mar 1
42 °FOvercast.6 mph80%29.80 "Hg9 mi
Weather by CustomWeather, © 2015

See weather overviewHow to use our weather pages